Terug naar catalogus

STARLINK-38109

ActiefCommunicatieVLEO
NORAD 100025·PAYLOAD·🇺🇸 United States

Gelanceerd Jul 14, 2026 vanaf Vandenberg Space Force Base

Loading…

Volgende Passages (komende 24 uur)

TLE

VerouderendSource: Space-Track

Epoch: Sep 13, 2026, 07:23 UTC

1 A0025U 26160AA  26256.30767123 -.00623728  00000-0 -41273-2 0  9991
2 A0025  70.0004 215.0978 0002817 291.6798  68.4101 15.76948743 10861

Volg STARLINK-38109 in realtime met AllMySat

Download on the App Store